Time,TemperatureF,DewpointF,PressureIn,WindDirection,WindDirectionDegrees,WindSpeedMPH,WindSpeedGustMPH,Humidity,HourlyPrecipIn,Conditions,Clouds,dailyrainin,SoftwareType,DateUTC
2013-10-20 00:03:00,80.2,76.0,29.92,SE,146,0.0,-999.0,87,-99.99,,,0.00,weatherlink.com 1.10,2013-10-20 04:03:00,
2013-10-20 00:18:00,79.8,75.0,29.91,ESE,123,0.0,-999.0,86,-99.99,,,0.00,weatherlink.com 1.10,2013-10-20 04:18:00,
2013-10-20 00:33:00,80.3,75.0,29.91,SSE,150,0.0,-999.0,84,-99.99,,,0.00,weatherlink.com 1.10,2013-10-20 04:33:00,
2013-10-20 00:48:00,80.3,75.0,29.91,SE,146,0.0,-999.0,84,-99.99,,,0.00,weatherlink.com 1.10,2013-10-20 04:48:00,
2013-10-20 01:03:00,80.1,75.0,29.90,SE,140,0.0,-999.0,84,-99.99,,,0.00,weatherlink.com 1.10,2013-10-20 05:03:00,
2013-10-20 01:18:00,79.8,75.0,29.90,South,190,0.0,-999.0,85,-99.99,,,0.00,weatherlink.com 1.10,2013-10-20 05:18:00,
2013-10-20 01:33:00,79.6,75.0,29.90,SSE,160,0.0,-999.0,85,-99.99,,,0.00,weatherlink.com 1.10,2013-10-20 05:33:00,
2013-10-20 01:48:00,79.3,75.0,29.90,SSE,167,0.0,-999.0,86,-99.99,,,0.00,weatherlink.com 1.10,2013-10-20 05:48:00,
2013-10-20 02:03:00,79.0,75.0,29.89,SSE,155,0.0,-999.0,86,-99.99,,,0.00,weatherlink.com 1.10,2013-10-20 06:03:00,
2013-10-20 02:18:00,78.6,75.0,29.89,SSE,155,0.0,-999.0,87,-99.99,,,0.00,weatherlink.com 1.10,2013-10-20 06:18:00,
2013-10-20 02:33:00,78.0,74.0,29.89,SSE,155,0.0,-999.0,87,-99.99,,,0.00,weatherlink.com 1.10,2013-10-20 06:33:00,
2013-10-20 02:48:00,77.6,74.0,29.88,SSE,155,0.0,-999.0,89,-99.99,,,0.00,weatherlink.com 1.10,2013-10-20 06:48:00,
2013-10-20 03:03:00,77.1,74.0,29.87,SSE,155,0.0,-999.0,90,-99.99,,,0.00,weatherlink.com 1.10,2013-10-20 07:03:00,
2013-10-20 03:18:00,76.8,74.0,29.87,SSE,155,0.0,-999.0,91,-99.99,,,0.00,weatherlink.com 1.10,2013-10-20 07:18:00,
2013-10-20 03:33:00,76.6,74.0,29.87,SSE,155,0.0,-999.0,92,-99.99,,,0.00,weatherlink.com 1.10,2013-10-20 07:33:00,
2013-10-20 03:48:00,76.8,74.0,29.87,SSE,155,0.0,-999.0,92,-99.99,,,0.00,weatherlink.com 1.10,2013-10-20 07:48:00,
2013-10-20 04:03:00,76.7,74.0,29.87,SSE,155,0.0,-999.0,92,-99.99,,,0.00,weatherlink.com 1.10,2013-10-20 08:03:00,
2013-10-20 04:18:00,76.5,74.0,29.86,SSE,155,0.0,-999.0,92,-99.99,,,0.00,weatherlink.com 1.10,2013-10-20 08:18:00,
2013-10-20 04:33:00,76.3,74.0,29.86,SSE,155,0.0,-999.0,93,-99.99,,,0.00,weatherlink.com 1.10,2013-10-20 08:33:00,
2013-10-20 04:48:00,76.6,75.0,29.87,SSE,155,0.0,-999.0,93,-99.99,,,0.00,weatherlink.com 1.10,2013-10-20 08:48:00,
2013-10-20 05:03:00,76.5,74.0,29.87,SSE,155,0.0,-999.0,93,-99.99,,,0.00,weatherlink.com 1.10,2013-10-20 09:03:00,
2013-10-20 05:18:00,76.2,74.0,29.87,SSE,155,0.0,-999.0,94,-99.99,,,0.00,weatherlink.com 1.10,2013-10-20 09:18:00,
2013-10-20 05:33:00,76.8,75.0,29.88,SSE,155,0.0,-999.0,94,-99.99,,,0.00,weatherlink.com 1.10,2013-10-20 09:33:00,
2013-10-20 05:48:00,76.5,75.0,29.88,SSE,155,0.0,-999.0,94,-99.99,,,0.00,weatherlink.com 1.10,2013-10-20 09:48:00,
2013-10-20 06:03:00,76.4,75.0,29.88,SSE,155,0.0,-999.0,94,-99.99,,,0.00,weatherlink.com 1.10,2013-10-20 10:03:00,
2013-10-20 06:18:00,76.3,75.0,29.89,SSE,155,0.0,-999.0,95,-99.99,,,0.00,weatherlink.com 1.10,2013-10-20 10:18:00,
2013-10-20 06:33:00,76.4,75.0,29.89,SSE,155,0.0,-999.0,94,-99.99,,,0.00,weatherlink.com 1.10,2013-10-20 10:33:00,
2013-10-20 06:48:00,76.1,75.0,29.89,SSE,156,0.0,-999.0,95,-99.99,,,0.00,weatherlink.com 1.10,2013-10-20 10:48:00,
2013-10-20 07:03:00,76.0,75.0,29.89,SSE,156,0.0,-999.0,95,-99.99,,,0.00,weatherlink.com 1.10,2013-10-20 11:03:00,
2013-10-20 07:18:00,76.0,75.0,29.90,SSE,156,0.0,-999.0,95,-99.99,,,0.00,weatherlink.com 1.10,2013-10-20 11:18:00,
2013-10-20 07:33:00,76.1,75.0,29.90,SSE,156,0.0,-999.0,95,-99.99,,,0.00,weatherlink.com 1.10,2013-10-20 11:33:00,
2013-10-20 07:48:00,76.5,75.0,29.91,SSW,211,0.0,-999.0,96,-99.99,,,0.00,weatherlink.com 1.10,2013-10-20 11:48:00,
2013-10-20 08:03:00,76.7,75.0,29.91,SSW,211,0.0,-999.0,95,-99.99,,,0.00,weatherlink.com 1.10,2013-10-20 12:03:00,
2013-10-20 08:18:00,76.9,75.0,29.91,SSW,211,0.0,-999.0,95,-99.99,,,0.00,weatherlink.com 1.10,2013-10-20 12:18:00,
2013-10-20 08:33:00,77.2,76.0,29.92,WSW,246,0.0,-999.0,95,-99.99,,,0.00,weatherlink.com 1.10,2013-10-20 12:33:00,
2013-10-20 08:48:00,77.7,76.0,29.92,WNW,303,0.0,-999.0,95,-99.99,,,0.00,weatherlink.com 1.10,2013-10-20 12:48:00,
2013-10-20 09:03:00,78.7,77.0,29.93,WNW,303,0.0,-999.0,94,-99.99,,,0.00,weatherlink.com 1.10,2013-10-20 13:03:00,
2013-10-20 09:18:00,79.9,77.0,29.93,NW,305,0.0,-999.0,92,-99.99,,,0.00,weatherlink.com 1.10,2013-10-20 13:18:00,
2013-10-20 09:34:00,81.0,77.0,29.93,WNW,292,0.0,-999.0,88,-99.99,,,0.00,weatherlink.com 1.10,2013-10-20 13:34:00,
2013-10-20 09:49:00,82.7,78.0,29.93,WNW,300,2.0,-999.0,85,-99.99,,,0.00,weatherlink.com 1.10,2013-10-20 13:49:00,
2013-10-20 10:04:00,83.0,78.0,29.94,NW,314,1.0,-999.0,85,-99.99,,,0.00,weatherlink.com 1.10,2013-10-20 14:04:00,
2013-10-20 10:19:00,83.3,78.0,29.93,WNW,285,0.0,-999.0,84,-99.99,,,0.00,weatherlink.com 1.10,2013-10-20 14:19:00,
2013-10-20 10:34:00,84.4,78.0,29.94,SW,226,0.0,-999.0,81,-99.99,,,0.00,weatherlink.com 1.10,2013-10-20 14:34:00,
2013-10-20 10:49:00,84.3,78.0,29.94,South,188,0.0,-999.0,80,-99.99,,,0.00,weatherlink.com 1.10,2013-10-20 14:49:00,
2013-10-20 11:04:00,83.6,77.0,29.94,West,260,0.0,-999.0,81,-99.99,,,0.00,weatherlink.com 1.10,2013-10-20 15:04:00,
2013-10-20 11:19:00,84.0,77.0,29.94,WNW,300,2.0,-999.0,79,-99.99,,,0.00,weatherlink.com 1.10,2013-10-20 15:19:00,
2013-10-20 11:34:00,84.9,77.0,29.94,SSW,213,0.0,-999.0,76,-99.99,,,0.00,weatherlink.com 1.10,2013-10-20 15:34:00,
2013-10-20 11:49:00,86.0,76.0,29.94,SSW,209,0.0,-999.0,71,-99.99,,,0.00,weatherlink.com 1.10,2013-10-20 15:49:00,
2013-10-20 12:04:00,87.1,75.0,29.93,SSE,158,1.0,-999.0,68,-99.99,,,0.00,weatherlink.com 1.10,2013-10-20 16:04:00,
2013-10-20 12:19:00,87.6,75.0,29.93,WNW,292,1.0,-999.0,67,-99.99,,,0.00,weatherlink.com 1.10,2013-10-20 16:19:00,
2013-10-20 12:34:00,88.4,75.0,29.92,WNW,301,0.0,-999.0,64,-99.99,,,0.00,weatherlink.com 1.10,2013-10-20 16:34:00,
2013-10-20 12:49:00,90.5,74.0,29.92,NW,309,2.0,-999.0,59,-99.99,,,0.00,weatherlink.com 1.10,2013-10-20 16:49:00,
2013-10-20 13:04:00,90.5,75.0,29.92,NW,311,1.0,-999.0,61,-99.99,,,0.00,weatherlink.com 1.10,2013-10-20 17:04:00,
2013-10-20 13:19:00,89.0,75.0,29.91,NW,314,3.0,-999.0,64,-99.99,,,0.00,weatherlink.com 1.10,2013-10-20 17:19:00,
2013-10-20 13:34:00,89.1,75.0,29.91,WNW,302,1.0,-999.0,63,-99.99,,,0.00,weatherlink.com 1.10,2013-10-20 17:34:00,
2013-10-20 13:49:00,90.2,77.0,29.91,SSW,211,4.0,-999.0,65,-99.99,,,0.00,weatherlink.com 1.10,2013-10-20 17:49:00,
2013-10-20 14:04:00,89.6,77.0,29.90,SE,136,2.0,-999.0,67,-99.99,,,0.00,weatherlink.com 1.10,2013-10-20 18:04:00,
2013-10-20 14:19:00,90.4,78.0,29.89,South,184,3.0,-999.0,66,-99.99,,,0.00,weatherlink.com 1.10,2013-10-20 18:19:00,
2013-10-20 14:34:00,90.2,78.0,29.89,SE,133,4.0,-999.0,67,-99.99,,,0.00,weatherlink.com 1.10,2013-10-20 18:34:00,
2013-10-20 14:49:00,90.2,78.0,29.88,SE,144,5.0,-999.0,67,-99.99,,,0.00,weatherlink.com 1.10,2013-10-20 18:49:00,
2013-10-20 15:04:00,89.3,77.0,29.88,SW,229,2.0,-999.0,68,-99.99,,,0.00,weatherlink.com 1.10,2013-10-20 19:04:00,
2013-10-20 15:19:00,90.0,77.0,29.88,ESE,109,5.0,-999.0,66,-99.99,,,0.00,weatherlink.com 1.10,2013-10-20 19:19:00,
2013-10-20 15:34:00,89.2,77.0,29.88,ESE,121,0.0,-999.0,68,-99.99,,,0.00,weatherlink.com 1.10,2013-10-20 19:34:00,
2013-10-20 15:49:00,88.3,77.0,29.87,East,96,1.0,-999.0,69,-99.99,,,0.00,weatherlink.com 1.10,2013-10-20 19:49:00,
2013-10-20 16:04:00,88.5,78.0,29.88,ESE,106,4.0,-999.0,70,-99.99,,,0.00,weatherlink.com 1.10,2013-10-20 20:04:00,
2013-10-20 16:19:00,88.3,77.0,29.88,SSE,159,6.0,-999.0,70,-99.99,,,0.00,weatherlink.com 1.10,2013-10-20 20:19:00,
2013-10-20 16:34:00,87.9,77.0,29.87,SSE,153,5.0,-999.0,71,-99.99,,,0.00,weatherlink.com 1.10,2013-10-20 20:34:00,
2013-10-20 16:49:00,88.1,77.0,29.87,East,84,4.0,-999.0,70,-99.99,,,0.00,weatherlink.com 1.10,2013-10-20 20:49:00,
2013-10-20 17:04:00,87.5,77.0,29.88,South,178,4.0,-999.0,71,-99.99,,,0.00,weatherlink.com 1.10,2013-10-20 21:04:00,
2013-10-20 17:19:00,86.8,77.0,29.88,ESE,115,4.0,-999.0,72,-99.99,,,0.00,weatherlink.com 1.10,2013-10-20 21:19:00,
2013-10-20 17:34:00,85.7,77.0,29.89,SSE,156,4.0,-999.0,74,-99.99,,,0.00,weatherlink.com 1.10,2013-10-20 21:34:00,
2013-10-20 17:49:00,84.8,77.0,29.89,SE,145,4.0,-999.0,76,-99.99,,,0.00,weatherlink.com 1.10,2013-10-20 21:49:00,
2013-10-20 18:04:00,84.1,77.0,29.89,South,172,4.0,-999.0,78,-99.99,,,0.00,weatherlink.com 1.10,2013-10-20 22:04:00,
2013-10-20 18:19:00,83.6,77.0,29.89,SSE,153,1.0,-999.0,79,-99.99,,,0.00,weatherlink.com 1.10,2013-10-20 22:19:00,
2013-10-20 18:34:00,83.4,77.0,29.89,SSW,204,3.0,-999.0,80,-99.99,,,0.00,weatherlink.com 1.10,2013-10-20 22:34:00,
2013-10-20 18:49:00,83.2,76.0,29.90,ESE,115,2.0,-999.0,80,-99.99,,,0.00,weatherlink.com 1.10,2013-10-20 22:49:00,
2013-10-20 19:04:00,83.0,76.0,29.90,SE,135,1.0,-999.0,80,-99.99,,,0.00,weatherlink.com 1.10,2013-10-20 23:04:00,
2013-10-20 19:19:00,82.8,76.0,29.91,SSW,196,2.0,-999.0,81,-99.99,,,0.00,weatherlink.com 1.10,2013-10-20 23:19:00,
2013-10-20 19:34:00,81.4,76.0,29.91,South,190,3.0,-999.0,83,-99.99,,,0.00,weatherlink.com 1.10,2013-10-20 23:34:00,
2013-10-20 19:49:00,80.5,75.0,29.91,South,178,2.0,-999.0,84,-99.99,,,0.00,weatherlink.com 1.10,2013-10-20 23:49:00,
2013-10-20 20:04:00,80.1,75.0,29.92,SSE,158,1.0,-999.0,84,-99.99,,,0.00,weatherlink.com 1.10,2013-10-21 00:04:00,
2013-10-20 20:19:00,79.9,75.0,29.93,SSE,156,0.0,-999.0,84,-99.99,,,0.00,weatherlink.com 1.10,2013-10-21 00:19:00,
2013-10-20 20:34:00,80.0,75.0,29.93,SSW,195,5.0,-999.0,84,-99.99,,,0.00,weatherlink.com 1.10,2013-10-21 00:34:00,
2013-10-20 20:49:00,80.1,75.0,29.93,SSE,157,0.0,-999.0,83,-99.99,,,0.00,weatherlink.com 1.10,2013-10-21 00:49:00,
2013-10-20 21:04:00,80.0,75.0,29.93,ESE,123,2.0,-999.0,84,-99.99,,,0.00,weatherlink.com 1.10,2013-10-21 01:04:00,
2013-10-20 21:19:00,80.1,75.0,29.94,SSE,155,1.0,-999.0,84,-99.99,,,0.00,weatherlink.com 1.10,2013-10-21 01:19:00,
2013-10-20 21:34:00,80.1,75.0,29.94,SE,136,0.0,-999.0,84,-99.99,,,0.00,weatherlink.com 1.10,2013-10-21 01:34:00,
2013-10-20 21:49:00,80.1,75.0,29.94,SSE,160,0.0,-999.0,84,-99.99,,,0.00,weatherlink.com 1.10,2013-10-21 01:49:00,
2013-10-20 22:04:00,80.1,75.0,29.94,SSE,148,0.0,-999.0,84,-99.99,,,0.00,weatherlink.com 1.10,2013-10-21 02:04:00,
2013-10-20 22:19:00,80.2,75.0,29.95,SSE,147,0.0,-999.0,83,-99.99,,,0.00,weatherlink.com 1.10,2013-10-21 02:19:00,
2013-10-20 22:34:00,80.1,75.0,29.95,SE,144,0.0,-999.0,84,-99.99,,,0.00,weatherlink.com 1.10,2013-10-21 02:34:00,
2013-10-20 22:49:00,80.0,75.0,29.95,SSE,149,0.0,-999.0,84,-99.99,,,0.00,weatherlink.com 1.10,2013-10-21 02:49:00,
2013-10-20 23:04:00,80.1,75.0,29.95,SSE,148,0.0,-999.0,84,-99.99,,,0.00,weatherlink.com 1.10,2013-10-21 03:04:00,
2013-10-20 23:19:00,80.1,75.0,29.95,SSE,152,0.0,-999.0,84,-99.99,,,0.00,weatherlink.com 1.10,2013-10-21 03:19:00,
2013-10-20 23:34:00,80.1,75.0,29.95,SSE,161,0.0,-999.0,83,-99.99,,,0.00,weatherlink.com 1.10,2013-10-21 03:34:00,
2013-10-20 23:49:00,80.0,74.0,29.95,SSE,152,0.0,-999.0,83,-99.99,,,0.00,weatherlink.com 1.10,2013-10-21 03:49:00,